[[{"header":{"parameterUnit":"m.s-1","parameterCategory":1,"la1":30.2991,"la2":30.254,"lo1":-89.0895,"lo2":-89.0444,"dy":0.0017,"dx":0.0017,"nx":28,"ny":28,"refTime":"2023-10-18T21:00:00:Z","depth":0,"parameterNumber":2,"parameterNumberName":"U-component_of_WINDS"},"data":[0,0,0,0,0,0,0,0,0,0,0,0,0,0,0,0,0,0,0,0,0,0,0,0,0,0,0,0,0,0,0,0,0,0,0,0,0,0,0,0,0,0,0,0,0,0,0,0,0,0,0,0,0,0,0,0,0,0,1.0717,1.0718,0,1.0835,1.0837,1.0838,1.0942,1.0943,1.0944,1.0945,1.1069,1.1071,1.1073,0,0,0,0,0,0,0,0,0,0,0,0,0,1.0583,1.0585,1.0717,1.0718,1.0719,1.0835,1.0837,1.0838,1.0942,1.0943,1.0945,1.0946,1.1068,1.1071,1.1073,0,0,0,0,0,0,0,0,0,0,0,0,0,1.0665,1.0585,1.0716,1.0785,1.0792,1.0835,1.0837,1.0839,1.0941,1.0943,1.0945,1.0947,1.1067,1.107,1.1074,1.1058,0,0,1.1084,1.1085,0,0,0,0,0,0,0,0,1.066,1.067,1.0773,1.078,1.0789,1.0876,1.0835,1.0912,1.0941,1.0885,1.0945,1.0948,1.1003,1.1012,1.103,1.1064,1.1069,1.1084,1.1086,1.1087,1.1088,0,0,0,0,0,0,0,1.0654,1.0665,1.0764,1.0775,1.0784,1.0811,1.0825,1.085,1.0933,1.089,1.0898,1.091,1.1008,1.1027,1.1034,1.1071,1.1084,1.1087,1.1089,1.109,1.1101,1.1099,0,0,0,0,0,0,1.0638,1.066,1.076,1.0767,1.0727,1.0812,1.0827,1.0846,1.0933,1.0948,1.0909,1.0915,1.102,1.103,1.1039,1.1027,1.1087,1.109,1.1092,1.1102,1.11,1.1098,0,0,0,0,0,0,1.0634,1.0646,1.0755,1.0716,1.0732,1.0812,1.0833,1.0847,1.0867,1.0947,1.0962,1.0913,1.1022,1.1034,1.1053,1.1033,1.1092,1.1095,1.1104,1.1102,1.1099,1.1004,0,0,0,0,0,0,1.063,1.0644,1.0638,1.0715,1.0733,1.0766,1.0831,1.0848,1.0872,1.0881,1.0955,1.0969,1.1024,1.1047,1.1056,1.1039,1.1097,1.1106,1.1103,1.11,1.1009,1.0998,1.0989,0,0,0,0,0,1.0625,1.0606,1.0637,1.0648,1.0727,1.0764,1.0775,1.0839,1.087,1.0865,1.0917,1.0966,1.1034,1.1048,1.1059,1.1042,1.1108,1.1104,1.11,1.1013,1.1,1.0989,0,0,0,0,0,0,1.0524,1.0617,1.0652,1.0658,1.0702,1.0782,1.0778,1.0823,1.086,1.0867,1.0946,1.0962,1.0972,1.101,1.1024,1.1033,1.1078,1.1076,1.1008,1.0996,1.0986,1.0977,1.11,0,0,0,0,0,1.0503,1.0524,1.0605,1.0602,1.0622,1.0696,1.0714,1.076,1.081,1.0829,1.0883,1.093,1.0962,1.0981,1.1015,1.1015,1.1034,1.1009,1.0999,1.0991,1.0988,1.0992,1.0983,1.1086,1.1086,1.1086,0,0,1.0458,1.0512,1.052,1.0583,1.0623,1.0644,1.0711,1.0731,1.0748,1.0833,1.0854,1.0895,1.0953,1.0962,1.0969,1.0994,1.0964,1.0986,1.0978,1.0981,1.0988,1.0978,1.0969,1.1084,1.1084,1.1084,0,0,1.0388,1.043,1.0433,1.0472,1.0532,1.0582,1.0582,1.0656,1.0686,1.0708,1.0773,1.0796,1.0849,1.0888,1.0915,1.0862,1.0909,1.0871,1.0819,1.0822,1.0814,1.0807,1.0789,1.0781,1.0868,1.0868,1.0868,0,1.0325,1.0359,1.0429,1.0445,1.0471,1.0549,1.0553,1.0588,1.0656,1.0673,1.07,1.077,1.0814,1.0835,1.0822,1.0841,1.0845,1.0862,1.0809,1.0803,1.0798,1.0781,1.0774,1.0863,1.0864,1.0864,1.0865,0,1.028,1.0303,1.0298,1.0361,1.0388,1.0397,1.0469,1.0488,1.0532,1.0579,1.0602,1.0659,1.0706,1.0715,1.0758,1.0742,1.0755,1.0794,1.0841,1.0782,1.0768,1.0762,1.0856,1.0858,1.0859,1.086,0,0,1.0147,1.0251,1.0248,1.0278,1.0351,1.0371,1.0386,1.0432,1.0447,1.0492,1.0507,1.0551,1.0589,1.0619,1.0668,1.0671,1.0627,1.071,1.0713,1.0693,1.0614,1.0583,1.0575,1.0659,1.0658,1.0657,1.0609,0,1.0089,1.0118,1.0182,1.0192,1.0215,1.0291,1.0304,1.0351,1.0396,1.0424,1.0474,1.0505,1.0551,1.057,1.0577,1.063,1.0612,1.0635,1.0674,1.0675,1.0656,1.0567,1.0535,1.0486,1.0604,1.0603,1.0602,0,1.0024,1.0064,1.0076,1.015,1.0162,1.0172,1.0221,1.0246,1.0302,1.0335,1.0369,1.0424,1.0445,1.0488,1.0519,1.0533,1.0554,1.0583,1.0583,1.0588,1.0634,1.057,1.0472,1.0464,1.0594,1.0595,1.0596,0,0.9926,0.9984,0.9999,1.0023,1.0109,1.0115,1.0151,1.0209,1.0233,1.0276,1.0293,1.0338,1.0363,1.0397,1.0463,1.0488,1.0487,1.0535,1.0515,1.0514,1.0511,1.051,1.0414,1.0524,1.0524,1.0525,1.0525,0,0.9854,0.9858,0.9957,0.9965,0.9974,1.0048,1.0054,1.0098,1.0149,1.0169,1.0239,1.0256,1.0342,1.037,1.0422,1.044,1.0451,1.0479,1.0492,1.0472,1.0468,1.0485,1.049,1.0523,1.0523,1.0523,1.0524,0,0.9745,0.9811,0.9832,0.9913,0.9933,0.9936,1.0005,1.0018,1.0068,1.0093,1.0103,1.0182,1.0219,1.0288,1.0344,1.0379,1.0386,1.041,1.0367,1.0375,1.0351,1.0352,1.0263,1.0255,1.037,1.0369,1.0368,0,0.9694,0.9699,0.978,0.9799,0.9832,0.9861,0.9886,0.9961,0.9985,1.0051,1.0055,1.0098,1.0135,1.0191,1.0254,1.0298,1.0323,1.0289,1.033,1.031,1.0323,1.0321,1.0323,1.0279,1.0277,1.0276,1.0275,0,0.9596,0.9629,0.9663,0.9708,0.9737,0.9777,0.982,0.9832,0.9917,0.9941,0.9979,1.0008,1.0066,1.0108,1.0161,1.0201,1.0252,1.0262,1.026,1.0239,1.0213,1.0227,1.0341,1.0263,1.0264,1.0265,1.0266,1.0266,0.9515,0.9524,0.9583,0.9619,0.9659,0.9699,0.9715,0.9768,0.9801,0.9853,0.9897,0.9931,0.999,1.0067,1.0104,1.0133,1.0157,1.0154,1.0153,1.0151,1.0143,1.0209,1.0143,1.0144,1.0144,1.0145,1.0145,0,0.9421,0.9463,0.9495,0.9554,0.9583,0.963,0.9681,0.9702,0.9732,0.9782,0.9818,0.9863,0.9904,0.9971,1.0018,1.0029,1.0054,1.0039,1.0038,1.0047,1.0118,1.0115,1.0018,1.0018,1.0018,1.0018,1.0018,1.0018,0.9375,0.9393,0.9433,0.9472,0.9516,0.955,0.9575,0.9613,0.9653,0.97,0.9735,0.9778,0.9836,0.9888,0.9928,0.9947,0.9961,0.9938,0.9965,1.003,1.0042,1.0053,1.0051,0.9941,0.9941,0.9891,0.989,0.989]},{"header":{"parameterUnit":"m.s-1","parameterCategory":1,"la1":30.2991,"la2":30.254,"lo1":-89.0895,"lo2":-89.0444,"dy":0.0017,"dx":0.0017,"nx":28,"ny":28,"refTime":"2023-10-18T21:00:00:Z","depth":0,"parameterNumber":3,"parameterNumberName":"V-component_of_WINDS"},"data":[0,0,0,0,0,0,0,0,0,0,0,0,0,0,0,0,0,0,0,0,0,0,0,0,0,0,0,0,0,0,0,0,0,0,0,0,0,0,0,0,0,0,0,0,0,0,0,0,0,0,0,0,0,0,0,0,0,0,0.6108,0.6109,0,0.6137,0.6137,0.6137,0.6172,0.6173,0.6173,0.6174,0.6203,0.6203,0.6204,0,0,0,0,0,0,0,0,0,0,0,0,0,0.6083,0.6084,0.6108,0.6109,0.6109,0.6137,0.6137,0.6137,0.6172,0.6173,0.6174,0.6174,0.6203,0.6203,0.6204,0,0,0,0,0,0,0,0,0,0,0,0,0,0.6101,0.6084,0.6108,0.613,0.6132,0.6136,0.6137,0.6137,0.6172,0.6173,0.6174,0.6174,0.6203,0.6203,0.6204,0.619,0,0,0.6205,0.6205,0,0,0,0,0,0,0,0,0.61,0.6102,0.6126,0.6128,0.6131,0.6152,0.6139,0.6155,0.6172,0.6157,0.6174,0.6175,0.6185,0.6187,0.6191,0.6191,0.6192,0.6205,0.6205,0.6205,0.6206,0,0,0,0,0,0,0,0.6099,0.6101,0.612,0.6127,0.6129,0.6137,0.6141,0.6142,0.6166,0.6158,0.6161,0.6164,0.6187,0.619,0.6192,0.6193,0.6205,0.6205,0.6206,0.6206,0.618,0.6179,0,0,0,0,0,0,0.6094,0.61,0.6119,0.6121,0.6117,0.6137,0.6141,0.6144,0.6166,0.617,0.6163,0.6165,0.6189,0.6191,0.6193,0.6176,0.6205,0.6206,0.6206,0.6181,0.6179,0.6178,0,0,0,0,0,0,0.6094,0.6096,0.6118,0.6111,0.6114,0.6137,0.614,0.6144,0.6148,0.617,0.6174,0.6162,0.619,0.6192,0.6189,0.6178,0.6206,0.6206,0.6182,0.618,0.6179,0.6143,0,0,0,0,0,0,0.6093,0.6095,0.6091,0.611,0.6114,0.6114,0.6139,0.6144,0.6148,0.6152,0.617,0.6174,0.6191,0.6189,0.619,0.6179,0.6207,0.6183,0.6181,0.6179,0.6145,0.6141,0.6137,0,0,0,0,0,0.6092,0.608,0.609,0.6093,0.6109,0.6113,0.6116,0.6135,0.6147,0.6142,0.6156,0.6174,0.6179,0.6188,0.619,0.6178,0.6184,0.6182,0.618,0.6147,0.6142,0.6137,0,0,0,0,0,0,0.606,0.6083,0.6095,0.6089,0.6099,0.6119,0.6114,0.6129,0.6135,0.6138,0.6162,0.6165,0.6159,0.6169,0.6179,0.6164,0.6184,0.6182,0.6159,0.6153,0.6149,0.6147,0.6207,0,0,0,0,0,0.6052,0.6053,0.6074,0.6067,0.6071,0.6091,0.6094,0.6108,0.6119,0.6123,0.6137,0.6147,0.615,0.6152,0.6157,0.6147,0.615,0.614,0.6135,0.6131,0.6129,0.6122,0.6117,0.6172,0.6172,0.6172,0,0,0.6036,0.6049,0.6049,0.6061,0.607,0.607,0.6095,0.6095,0.6095,0.6123,0.6121,0.6131,0.6143,0.6136,0.6134,0.6144,0.6115,0.6129,0.6126,0.6126,0.612,0.6114,0.611,0.617,0.617,0.6171,0,0,0.6007,0.6018,0.6012,0.602,0.6033,0.6046,0.6044,0.6062,0.6069,0.6067,0.6087,0.6088,0.6094,0.6101,0.6106,0.6076,0.6092,0.6077,0.6054,0.6046,0.6042,0.6038,0.6026,0.6022,0.6075,0.6075,0.6075,0,0.5986,0.5987,0.6007,0.6005,0.6009,0.6033,0.6027,0.6034,0.6047,0.6049,0.606,0.6067,0.6077,0.6071,0.6063,0.6066,0.6064,0.6075,0.6041,0.6038,0.6034,0.6023,0.6019,0.6073,0.6073,0.6073,0.6073,0,0.5959,0.596,0.5954,0.5965,0.5968,0.5964,0.5982,0.5983,0.5996,0.6007,0.6003,0.6016,0.6023,0.6022,0.6035,0.6017,0.6022,0.6037,0.6057,0.6027,0.6017,0.6013,0.607,0.6071,0.6071,0.6072,0,0,0.5913,0.5933,0.5931,0.5935,0.5949,0.595,0.5946,0.5951,0.5951,0.5959,0.5955,0.5958,0.5971,0.5976,0.599,0.5983,0.5957,0.5999,0.5999,0.5989,0.5935,0.5923,0.5918,0.5967,0.5966,0.5966,0.5933,0,0.5886,0.588,0.5897,0.5886,0.5886,0.5907,0.5904,0.5911,0.5921,0.5922,0.5933,0.5934,0.5952,0.5955,0.5949,0.5961,0.5946,0.5964,0.5963,0.5963,0.5959,0.5913,0.5902,0.5871,0.593,0.5929,0.5929,0,0.5855,0.5859,0.5848,0.5861,0.5861,0.5858,0.5863,0.5863,0.5872,0.5879,0.5883,0.5898,0.5894,0.5913,0.5906,0.5918,0.5918,0.5923,0.5923,0.5923,0.5944,0.5911,0.5862,0.5856,0.5923,0.5923,0.5924,0,0.582,0.5823,0.5817,0.582,0.5835,0.5831,0.5837,0.5847,0.5848,0.5852,0.5853,0.5857,0.5859,0.5861,0.5877,0.5889,0.5868,0.5888,0.5873,0.5872,0.5868,0.5868,0.5816,0.5869,0.5869,0.5869,0.5869,0,0.5788,0.578,0.5801,0.5797,0.5788,0.5806,0.5797,0.5805,0.5813,0.581,0.5829,0.5826,0.5847,0.5845,0.5857,0.5849,0.585,0.5855,0.5858,0.5853,0.5852,0.5854,0.5856,0.5868,0.5868,0.5868,0.5868,0,0.5748,0.5762,0.5756,0.5769,0.5773,0.5765,0.5777,0.5773,0.5783,0.5779,0.5779,0.5795,0.5794,0.5809,0.5812,0.582,0.5806,0.5813,0.5803,0.5805,0.5788,0.5789,0.5736,0.5729,0.5786,0.5786,0.5785,0,0.5727,0.5721,0.5733,0.5732,0.5737,0.5735,0.5736,0.5753,0.5753,0.576,0.5755,0.5756,0.5757,0.5754,0.5766,0.5767,0.5775,0.5755,0.5775,0.5769,0.5773,0.5773,0.5771,0.5751,0.5751,0.575,0.575,0,0.5687,0.5693,0.5694,0.5695,0.5695,0.5698,0.5702,0.57,0.5718,0.5717,0.5715,0.5716,0.5717,0.5717,0.572,0.5726,0.574,0.5743,0.574,0.5734,0.5728,0.573,0.5791,0.5745,0.5745,0.5745,0.5746,0.5746,0.5655,0.565,0.5657,0.5656,0.566,0.5662,0.5658,0.5667,0.5666,0.5668,0.5678,0.5674,0.568,0.5686,0.569,0.5687,0.5696,0.5691,0.569,0.5688,0.5685,0.5728,0.5688,0.5688,0.5688,0.5688,0.5688,0,0.5615,0.5619,0.5618,0.5622,0.562,0.5633,0.5637,0.5635,0.5631,0.5636,0.5636,0.5633,0.5632,0.5643,0.5643,0.5638,0.5644,0.5638,0.5638,0.5639,0.5677,0.568,0.5632,0.5632,0.5632,0.5632,0.5632,0.5632,0.5594,0.5585,0.5592,0.5584,0.5589,0.5585,0.5586,0.5588,0.5591,0.5587,0.5586,0.5592,0.5598,0.5598,0.5598,0.5601,0.5599,0.559,0.5595,0.5631,0.5636,0.5641,0.5644,0.559,0.559,0.5557,0.5556,0.5556]}]]